USA 40 R/B DEB, 23385

Orbit data source: Space-Track

USA 40 R/B DEB, 23385 is space debris originally from a launch on Tue, 08 Aug 1989 UTC launched from the Air Force Eastern Test Range (AFETR). Debris objects in space refer to the collection of defunct objects orbiting the Earth. Examples of debris include non-operational satellites, rocket bodies, and fragments generated from explosions, collisions, or faulty payload assembly.

Loading next visibility...
Identifier
23385, 1989-061BH
Orbit
Active
Country
Flag of USUS
Related business
Manufacturer
Unknown
Mission
Spacecraft
Bus & Motor
Unknown
Mass
Unknown
Launch date (UTC)
1989-08-08 (37 years ago)
Launch vehicle
Unknown
Launch site
Air Force Eastern Test Range (AFETR)
Object type
Payload
Rocket body
Debris
Shape & HBR
Unknown shape, 0.1 m
Radar Cross Section
Medium (>0.1 m² and <1 m²)

Expand to show TLE details & history
Last TLE update: 2 days ago

TLE from 2 days ago
0 USA 40 R/B DEB
1 23385U 89061BH  26171.22453891  .00001114  00000-0  11076-2 0  9990
2 23385  56.9794  97.5846 3049534 139.4947 247.8217  8.73978544229950
Epoch: 2026-06-20T05:23Z
TLE epoch observation values (Epoch: 2026-06-20T05:23:20.161Z)
Latitude
0.00001°
Longitude
108.30838°
Altitude
5,374.847 km
Speed
5.273 km/s
True Right ascension
06h 30m 20s
True Declination
0° 00' 00"
Sunlit
Object was in daylight at epoch
Visualization orbit readout
Latitude
Unknown
Longitude
Unknown
Altitude
Unknown
Speed
Unknown
Apparent Right ascension
Unknown
Apparent Declination
Unknown
Sunlit
N/A
Visualization observer readout
Local Sidereal Time
00:50:06
Azimuth
Unknown
Elevation
Unknown
Doppler factor
Unknown
Orbital elements
Apogee altitude
6,613.117 km
Perigee altitude
541.288 km
Semi-major axis
9,955.339 km
Eccentricity
0.30495
Inclination
56.9794°
RAAN
97.5846°
Arg. of periapsis
139.4947°
True anomaly
220.5812°
Mean anomaly
247.8217°
Eccentric anomaly
233.73396°
Mean motion
2.18504 °/min
Orbital period
164.76 mins
BSTAR
0.0011076
Loading maneuver chart data...
Computing Atmospheric mass density...
Loading historical data...
Loading historical data...
Loading historical data...
Loading historical data...
Loading historical data...
Loading historical data...
Loading historical data...

Documentation

Showing up to 5 results
|